Zurück zum Katalog

USA 44

AktivMilitärGEO
NORAD 20203·PAYLOAD·🇺🇸 United States

Gestartet Sep 4, 1989 von Cape Canaveral Space Force Station

Loading…

TLE

AktuellSource: Space-Track

Epoche: Sep 13, 2026, 01:47 UTC

1 20203U 89069B   26256.07464323 -.00000261  00000-0  00000-0 0  9999
2 20203  14.7527   3.4036 0009446  19.7302 337.5137  0.99122292 25851

Verfolge USA 44 in Echtzeit mit AllMySat

Download on the App Store